Voltar ao catálogo

SL-14 DEB

AtivoPO
NORAD 26022·DEBRIS·🇷🇺 Russia

Lançado Sep 28, 1991 de Plesetsk Cosmodrome

Loading…

Próximas Passagens (próximas 24 horas)

TLE

AtualizadoSource: Space-Track

Época: Sep 14, 2026, 08:24 UTC

1 26022U 91068AH  26257.35045354  .00000120  00000-0  60758-3 0  9999
2 26022  82.4600 211.6310 0077211 318.8011 195.4539 12.62360797609248

Acompanhe SL-14 DEB em tempo real com AllMySat

Download on the App Store